Location: Pallagorio
(39.3000°N, 16.9000°E)
Time: 19:07:13
(UTC+00:00)

Cosmos 405 - Pass Details

Date: 24 January 2021
Orbit: 448 x 462 km, 81.3° (Epoch: 03 March)

Event Time Altitude Azimuth Distance (km) Brightness Sun altitude
Rises 17:24:04 0° 359° (N) 2,501 6.6 -15.6°
Reaches altitude 10° 17:26:17 10° 8° (N) 1,620 5.5 -16.0°
Enters shadow 17:28:07 25° 29° (NNE) 983 4.2 -16.3°
